Year,Month,Day,Hour,Minute,Value (Times are PST for windspeed in km/hr)
2014,11,12,00,00,14.20
2014,11,12,00,01,7.20
2014,11,12,00,02,1.80
2014,11,12,00,03,15.70
2014,11,12,00,04,27.30
2014,11,12,00,05,15.90
2014,11,12,00,06,7.60
2014,11,12,00,07,19.20
2014,11,12,00,08,6.00
2014,11,12,00,09,1.80
2014,11,12,00,10,11.30
2014,11,12,00,11,27.40
2014,11,12,00,12,5.70
2014,11,12,00,13,7.90
2014,11,12,00,14,19.80
2014,11,12,00,15,16.90
2014,11,12,00,16,17.00
2014,11,12,00,17,17.80
2014,11,12,00,18,22.40
2014,11,12,00,19,19.10
2014,11,12,00,20,4.70
2014,11,12,00,21,8.20
2014,11,12,00,22,18.10
2014,11,12,00,23,36.40
2014,11,12,00,24,20.40
2014,11,12,00,25,4.20
2014,11,12,00,26,2.20
2014,11,12,00,27,4.70
2014,11,12,00,28,5.80
2014,11,12,00,29,9.70
2014,11,12,00,30,4.70
2014,11,12,00,31,11.40
2014,11,12,00,32,11.00
2014,11,12,00,33,15.20
2014,11,12,00,34,14.30
2014,11,12,00,35,23.90
2014,11,12,00,36,9.10
2014,11,12,00,37,21.30
2014,11,12,00,38,23.00
2014,11,12,00,39,14.20
2014,11,12,00,40,3.90
2014,11,12,00,41,1.30
2014,11,12,00,42,6.90
2014,11,12,00,43,4.00
2014,11,12,00,44,4.30
2014,11,12,00,45,13.00
2014,11,12,00,46,9.60
2014,11,12,00,47,14.60
2014,11,12,00,48,13.80
2014,11,12,00,49,3.30
2014,11,12,00,50,1.00
2014,11,12,00,51,7.60
2014,11,12,00,52,11.30
2014,11,12,00,53,16.40
2014,11,12,00,54,18.70
2014,11,12,00,55,22.20
2014,11,12,00,56,11.30
2014,11,12,00,57,6.40
2014,11,12,00,58,5.80
2014,11,12,00,59,1.30
2014,11,12,01,00,10.90
2014,11,12,01,01,14.10
2014,11,12,01,02,23.20
2014,11,12,01,03,11.00
2014,11,12,01,04,7.10
2014,11,12,01,05,13.20
2014,11,12,01,06,8.30
2014,11,12,01,07,18.60
2014,11,12,01,08,20.10
2014,11,12,01,09,13.70
2014,11,12,01,10,16.60
2014,11,12,01,11,12.00
2014,11,12,01,12,15.40
2014,11,12,01,13,16.30
2014,11,12,01,14,29.90
2014,11,12,01,15,11.90
2014,11,12,01,16,8.30
2014,11,12,01,17,5.50
2014,11,12,01,18,6.20
2014,11,12,01,19,5.50
2014,11,12,01,20,4.30
2014,11,12,01,21,3.90
2014,11,12,01,22,4.60
2014,11,12,01,23,11.90
2014,11,12,01,24,10.50
2014,11,12,01,25,15.60
2014,11,12,01,26,20.60
2014,11,12,01,27,24.20
2014,11,12,01,28,9.30
2014,11,12,01,29,9.50
2014,11,12,01,30,13.30
2014,11,12,01,31,33.30
2014,11,12,01,32,16.40
2014,11,12,01,33,8.10
2014,11,12,01,34,6.50
2014,11,12,01,35,4.10
2014,11,12,01,36,26.50
2014,11,12,01,37,18.00
2014,11,12,01,38,11.70
2014,11,12,01,39,10.30
2014,11,12,01,40,9.70
2014,11,12,01,41,16.30
2014,11,12,01,42,14.60
2014,11,12,01,43,11.50
2014,11,12,01,44,12.60
2014,11,12,01,45,16.60
2014,11,12,01,46,23.30
2014,11,12,01,47,15.10
2014,11,12,01,48,3.90
2014,11,12,01,49,6.40
2014,11,12,01,50,12.10
2014,11,12,01,51,15.70
2014,11,12,01,52,8.90
2014,11,12,01,53,12.30
2014,11,12,01,54,22.00
2014,11,12,01,55,25.30
2014,11,12,01,56,11.40
2014,11,12,01,57,20.70
2014,11,12,01,58,25.90
2014,11,12,01,59,14.60
2014,11,12,02,00,15.30
2014,11,12,02,01,14.20
2014,11,12,02,02,15.40
2014,11,12,02,03,13.80
2014,11,12,02,04,21.00
2014,11,12,02,05,12.70
2014,11,12,02,06,25.10
2014,11,12,02,07,22.40
2014,11,12,02,08,21.60
2014,11,12,02,09,13.10
2014,11,12,02,10,14.30
2014,11,12,02,11,10.80
2014,11,12,02,12,15.30
2014,11,12,02,13,9.10
2014,11,12,02,14,5.00
2014,11,12,02,15,13.10
2014,11,12,02,16,14.30
2014,11,12,02,17,7.70
2014,11,12,02,18,12.50
2014,11,12,02,19,16.70
2014,11,12,02,20,21.80
2014,11,12,02,21,21.10
2014,11,12,02,22,8.90
2014,11,12,02,23,30.70
2014,11,12,02,24,21.10
2014,11,12,02,25,7.40
2014,11,12,02,26,3.80
2014,11,12,02,27,8.80
2014,11,12,02,28,9.20
2014,11,12,02,29,15.20
2014,11,12,02,30,15.90
2014,11,12,02,31,15.40
2014,11,12,02,32,5.70
2014,11,12,02,33,6.80
2014,11,12,02,34,9.10
2014,11,12,02,35,19.00
2014,11,12,02,36,25.30
2014,11,12,02,37,17.70
2014,11,12,02,38,11.10
2014,11,12,02,39,3.10
2014,11,12,02,40,4.80
2014,11,12,02,41,14.20
2014,11,12,02,42,5.80
2014,11,12,02,43,11.10
2014,11,12,02,44,32.10
2014,11,12,02,45,4.30
2014,11,12,02,46,11.10
2014,11,12,02,47,6.80
2014,11,12,02,48,1.40
2014,11,12,02,49,14.80
2014,11,12,02,50,12.70
2014,11,12,02,51,17.40
2014,11,12,02,52,20.40
2014,11,12,02,53,4.00
2014,11,12,02,54,8.80
2014,11,12,02,55,16.60
2014,11,12,02,56,21.50
2014,11,12,02,57,21.70
2014,11,12,02,58,12.20
2014,11,12,02,59,11.30
2014,11,12,03,00,20.10
2014,11,12,03,01,6.40
2014,11,12,03,02,6.00
2014,11,12,03,03,3.60
2014,11,12,03,04,5.90
2014,11,12,03,05,5.20
2014,11,12,03,06,11.50
2014,11,12,03,07,8.80
2014,11,12,03,08,0.60
2014,11,12,03,09,8.30
2014,11,12,03,10,7.00
2014,11,12,03,11,10.90
2014,11,12,03,12,3.50
2014,11,12,03,13,5.40
2014,11,12,03,14,15.20
2014,11,12,03,15,3.50
2014,11,12,03,16,3.90
2014,11,12,03,17,2.40
2014,11,12,03,18,5.10
2014,11,12,03,19,23.00
2014,11,12,03,20,11.40
2014,11,12,03,21,6.00
2014,11,12,03,22,21.20
2014,11,12,03,23,8.90
2014,11,12,03,24,14.20
2014,11,12,03,25,7.60
2014,11,12,03,26,19.00
2014,11,12,03,27,23.50
2014,11,12,03,28,24.60
2014,11,12,03,29,15.40
2014,11,12,03,30,4.00
2014,11,12,03,31,6.00
2014,11,12,03,32,4.60
2014,11,12,03,33,9.70
2014,11,12,03,34,15.50
2014,11,12,03,35,3.30
2014,11,12,03,36,2.50
2014,11,12,03,37,14.60
2014,11,12,03,38,5.50
2014,11,12,03,39,23.10
2014,11,12,03,40,14.50
2014,11,12,03,41,7.60
2014,11,12,03,42,20.30
2014,11,12,03,43,16.20
2014,11,12,03,44,8.50
2014,11,12,03,45,10.30
2014,11,12,03,46,10.80
2014,11,12,03,47,5.90
2014,11,12,03,48,4.70
2014,11,12,03,49,7.10
2014,11,12,03,50,13.50
2014,11,12,03,51,3.10
2014,11,12,03,52,2.30
2014,11,12,03,53,3.50
2014,11,12,03,54,4.20
2014,11,12,03,55,4.70
2014,11,12,03,56,5.30
2014,11,12,03,57,5.70
2014,11,12,03,58,16.30
2014,11,12,03,59,11.30
2014,11,12,04,00,9.50
2014,11,12,04,01,10.00
2014,11,12,04,02,15.70
2014,11,12,04,03,11.00
2014,11,12,04,04,8.00
2014,11,12,04,05,12.70
2014,11,12,04,06,10.70
2014,11,12,04,07,15.80
2014,11,12,04,08,7.30
2014,11,12,04,09,9.40
2014,11,12,04,10,14.70
2014,11,12,04,11,6.00
2014,11,12,04,12,5.80
2014,11,12,04,13,14.00
2014,11,12,04,14,2.90
2014,11,12,04,15,0.40
2014,11,12,04,16,6.00
2014,11,12,04,17,1.60
2014,11,12,04,18,10.20
2014,11,12,04,19,10.40
2014,11,12,04,20,4.90
2014,11,12,04,21,3.40
2014,11,12,04,22,4.00
2014,11,12,04,23,3.10
2014,11,12,04,24,5.60
2014,11,12,04,25,3.80
2014,11,12,04,26,8.10
2014,11,12,04,27,6.20
2014,11,12,04,28,9.80
2014,11,12,04,29,6.50
2014,11,12,04,30,8.90
2014,11,12,04,31,3.40
2014,11,12,04,32,16.20
2014,11,12,04,33,17.90
2014,11,12,04,34,11.00
2014,11,12,04,35,5.90
2014,11,12,04,36,4.20
2014,11,12,04,37,1.00
2014,11,12,04,38,1.00
2014,11,12,04,39,0.80
2014,11,12,04,40,0.00
2014,11,12,04,41,1.70
2014,11,12,04,42,1.40
2014,11,12,04,43,0.30
2014,11,12,04,44,0.80
2014,11,12,04,45,7.50
2014,11,12,04,46,10.20
2014,11,12,04,47,8.00
2014,11,12,04,48,8.40
2014,11,12,04,49,0.30
2014,11,12,04,50,1.40
2014,11,12,04,51,4.90
2014,11,12,04,52,2.60
2014,11,12,04,53,6.20
2014,11,12,04,54,3.80
2014,11,12,04,55,12.00
2014,11,12,04,56,5.10
2014,11,12,04,57,2.30
2014,11,12,04,58,2.40
2014,11,12,04,59,2.70
2014,11,12,05,00,1.80
2014,11,12,05,01,0.60
2014,11,12,05,02,5.10
2014,11,12,05,03,4.60
2014,11,12,05,04,7.40
2014,11,12,05,05,3.20
2014,11,12,05,06,6.50
2014,11,12,05,07,11.40
2014,11,12,05,08,15.50
2014,11,12,05,09,28.50
2014,11,12,05,10,16.10
2014,11,12,05,11,15.20
2014,11,12,05,12,1.90
2014,11,12,05,13,12.00
2014,11,12,05,14,15.20
2014,11,12,05,15,13.30
2014,11,12,05,16,4.90
2014,11,12,05,17,3.10
2014,11,12,05,18,0.70
2014,11,12,05,19,7.60
2014,11,12,05,20,8.00
2014,11,12,05,21,17.70
2014,11,12,05,22,7.60
2014,11,12,05,23,14.20
2014,11,12,05,24,17.10
2014,11,12,05,25,2.70
2014,11,12,05,26,19.10
2014,11,12,05,27,3.20
2014,11,12,05,28,5.20
2014,11,12,05,29,3.70
2014,11,12,05,30,4.60
2014,11,12,05,31,1.00
2014,11,12,05,32,12.20
2014,11,12,05,33,9.20
2014,11,12,05,34,5.00
2014,11,12,05,35,2.90
2014,11,12,05,36,2.20
2014,11,12,05,37,8.70
2014,11,12,05,38,11.20
2014,11,12,05,39,15.50
2014,11,12,05,40,12.40
2014,11,12,05,41,18.30
2014,11,12,05,42,8.00
2014,11,12,05,43,8.80
2014,11,12,05,44,0.30
2014,11,12,05,45,0.00
2014,11,12,05,46,1.90
2014,11,12,05,47,2.70
2014,11,12,05,48,0.80
2014,11,12,05,49,0.50
2014,11,12,05,50,2.30
2014,11,12,05,51,3.40
2014,11,12,05,52,3.40
2014,11,12,05,53,5.00
2014,11,12,05,54,4.20
2014,11,12,05,55,2.90
2014,11,12,05,56,3.70
2014,11,12,05,57,1.60
2014,11,12,05,58,2.70
2014,11,12,05,59,7.10
2014,11,12,06,00,3.50
2014,11,12,06,01,5.30
2014,11,12,06,02,9.10
2014,11,12,06,03,4.70
2014,11,12,06,04,3.40
2014,11,12,06,05,8.20
2014,11,12,06,06,9.10
2014,11,12,06,07,15.90
2014,11,12,06,08,16.90
2014,11,12,06,09,13.40
2014,11,12,06,10,2.20
2014,11,12,06,11,0.90
2014,11,12,06,12,7.20
2014,11,12,06,13,7.00
2014,11,12,06,14,9.70
2014,11,12,06,15,5.70
2014,11,12,06,16,9.30
2014,11,12,06,17,3.60
2014,11,12,06,18,6.10
2014,11,12,06,19,10.60
2014,11,12,06,20,16.10
2014,11,12,06,21,5.60
2014,11,12,06,22,7.90
2014,11,12,06,23,6.40
2014,11,12,06,24,0.50
2014,11,12,06,25,4.00
2014,11,12,06,26,7.80
2014,11,12,06,27,5.50
2014,11,12,06,28,3.60
2014,11,12,06,29,2.10
2014,11,12,06,30,0.90
2014,11,12,06,31,0.10
2014,11,12,06,32,1.10
2014,11,12,06,33,3.50
2014,11,12,06,34,7.20
2014,11,12,06,35,5.10
2014,11,12,06,36,16.10
2014,11,12,06,37,12.50
2014,11,12,06,38,4.30
2014,11,12,06,39,6.20
2014,11,12,06,40,15.30
2014,11,12,06,41,5.10
2014,11,12,06,42,4.80
2014,11,12,06,43,7.20
2014,11,12,06,44,8.20
2014,11,12,06,45,0.10
2014,11,12,06,46,0.70
2014,11,12,06,47,3.00
2014,11,12,06,48,6.60
2014,11,12,06,49,8.50
2014,11,12,06,50,4.70
2014,11,12,06,51,1.60
2014,11,12,06,52,5.00
2014,11,12,06,53,6.60
2014,11,12,06,54,9.20
2014,11,12,06,55,3.30
2014,11,12,06,56,0.40
2014,11,12,06,57,1.00
2014,11,12,06,58,3.10
2014,11,12,06,59,0.90
2014,11,12,07,00,1.80
2014,11,12,07,01,5.10
2014,11,12,07,02,5.60
2014,11,12,07,03,1.70
2014,11,12,07,04,0.20
2014,11,12,07,05,0.60
2014,11,12,07,06,0.00
2014,11,12,07,07,6.30
2014,11,12,07,08,8.00
2014,11,12,07,09,2.60
2014,11,12,07,10,0.70
2014,11,12,07,11,5.90
2014,11,12,07,12,7.20
2014,11,12,07,13,11.20
2014,11,12,07,14,10.20
2014,11,12,07,15,5.60
2014,11,12,07,16,0.80
2014,11,12,07,17,0.00
2014,11,12,07,18,1.30
2014,11,12,07,19,3.10
2014,11,12,07,20,1.10
2014,11,12,07,21,3.50
2014,11,12,07,22,2.20
2014,11,12,07,23,2.10
2014,11,12,07,24,2.70
2014,11,12,07,25,2.10
2014,11,12,07,26,2.90
2014,11,12,07,27,4.60
2014,11,12,07,28,3.20
2014,11,12,07,29,1.50
2014,11,12,07,30,0.50
2014,11,12,07,31,8.00
2014,11,12,07,32,8.30
2014,11,12,07,33,2.50
2014,11,12,07,34,4.20
2014,11,12,07,35,10.10
2014,11,12,07,36,1.50
2014,11,12,07,37,0.10
2014,11,12,07,38,4.30
2014,11,12,07,39,6.10
2014,11,12,07,40,9.50
2014,11,12,07,41,9.20
2014,11,12,07,42,4.80
2014,11,12,07,43,8.50
2014,11,12,07,44,1.90
2014,11,12,07,45,2.70
2014,11,12,07,46,6.00
2014,11,12,07,47,0.30
2014,11,12,07,48,5.60
2014,11,12,07,49,7.20
2014,11,12,07,50,3.90
2014,11,12,07,51,6.30
2014,11,12,07,52,7.30
2014,11,12,07,53,6.30
2014,11,12,07,54,9.80
2014,11,12,07,55,11.30
2014,11,12,07,56,1.90
2014,11,12,07,57,5.40
2014,11,12,07,58,6.00
2014,11,12,07,59,6.00
2014,11,12,08,00,3.20
2014,11,12,08,01,5.10
2014,11,12,08,02,1.40
2014,11,12,08,03,14.20
2014,11,12,08,04,6.40
2014,11,12,08,05,6.00
2014,11,12,08,06,7.80
2014,11,12,08,07,1.90
2014,11,12,08,08,1.00
2014,11,12,08,09,2.60
2014,11,12,08,10,3.50
2014,11,12,08,11,1.00
2014,11,12,08,12,1.80
2014,11,12,08,13,1.90
2014,11,12,08,14,1.90
2014,11,12,08,15,5.20
2014,11,12,08,16,9.80
2014,11,12,08,17,5.40
2014,11,12,08,18,8.10
2014,11,12,08,19,15.20
2014,11,12,08,20,6.00
2014,11,12,08,21,6.40
2014,11,12,08,22,3.20
2014,11,12,08,23,2.90
2014,11,12,08,24,6.80
2014,11,12,08,25,2.50
2014,11,12,08,26,6.90
2014,11,12,08,27,9.10
2014,11,12,08,28,15.90
2014,11,12,08,29,13.70
2014,11,12,08,30,6.90
2014,11,12,08,31,4.30
2014,11,12,08,32,5.90
2014,11,12,08,33,8.10
2014,11,12,08,34,2.90
2014,11,12,08,35,0.00
2014,11,12,08,36,1.20
2014,11,12,08,37,2.70
2014,11,12,08,38,4.10
2014,11,12,08,39,10.40
2014,11,12,08,40,15.20
2014,11,12,08,41,6.50
2014,11,12,08,42,5.50
2014,11,12,08,43,2.30
2014,11,12,08,44,8.50
2014,11,12,08,45,16.40
2014,11,12,08,46,14.60
2014,11,12,08,47,6.40
2014,11,12,08,48,8.40
2014,11,12,08,49,7.50
2014,11,12,08,50,8.00
2014,11,12,08,51,8.40
2014,11,12,08,52,19.50
2014,11,12,08,53,17.70
2014,11,12,08,54,20.00
2014,11,12,08,55,18.30
2014,11,12,08,56,7.20
2014,11,12,08,57,7.30
2014,11,12,08,58,14.20
2014,11,12,08,59,16.10
2014,11,12,09,00,6.20
2014,11,12,09,01,0.40
2014,11,12,09,02,0.00
2014,11,12,09,03,0.10
2014,11,12,09,04,0.10
2014,11,12,09,05,0.00
2014,11,12,09,06,0.10
2014,11,12,09,07,0.10
2014,11,12,09,08,0.00
2014,11,12,09,09,0.10
2014,11,12,09,10,0.00
2014,11,12,09,11,0.00
2014,11,12,09,12,1.00
2014,11,12,09,13,0.20
2014,11,12,09,14,0.00
2014,11,12,09,15,0.80
2014,11,12,09,16,0.40
2014,11,12,09,17,0.10
2014,11,12,09,18,0.00
2014,11,12,09,19,0.50
2014,11,12,09,20,0.10
2014,11,12,09,21,0.20
2014,11,12,09,22,0.60
2014,11,12,09,23,0.20
2014,11,12,09,24,2.70
2014,11,12,09,25,0.40
2014,11,12,09,26,0.00
2014,11,12,09,27,0.80
2014,11,12,09,28,0.80
2014,11,12,09,29,2.30
2014,11,12,09,30,0.60
2014,11,12,09,31,1.70
2014,11,12,09,32,0.00
2014,11,12,09,33,1.10
2014,11,12,09,34,1.20
2014,11,12,09,35,0.40
2014,11,12,09,36,0.40
2014,11,12,09,37,0.30
2014,11,12,09,38,0.10
2014,11,12,09,39,0.00
2014,11,12,09,40,0.00
2014,11,12,09,41,0.00
2014,11,12,09,42,0.00
2014,11,12,09,43,0.00
2014,11,12,09,44,0.10
2014,11,12,09,45,0.50
2014,11,12,09,46,0.40
2014,11,12,09,47,1.10
2014,11,12,09,48,0.00
2014,11,12,09,49,0.40
2014,11,12,09,50,1.50
2014,11,12,09,51,0.00
2014,11,12,09,52,0.10
2014,11,12,09,53,0.30
2014,11,12,09,54,0.20
2014,11,12,09,55,0.30
2014,11,12,09,56,0.10
2014,11,12,09,57,1.10
2014,11,12,09,58,0.90
2014,11,12,09,59,1.40
2014,11,12,10,00,2.00
2014,11,12,10,01,1.80
2014,11,12,10,02,0.00
2014,11,12,10,03,0.00
2014,11,12,10,04,0.00
2014,11,12,10,05,0.20
2014,11,12,10,06,0.70
2014,11,12,10,07,1.40
2014,11,12,10,08,0.40
2014,11,12,10,09,1.70
2014,11,12,10,10,0.00
2014,11,12,10,11,0.10
2014,11,12,10,12,0.50
2014,11,12,10,13,0.20
2014,11,12,10,14,2.80
2014,11,12,10,15,0.60
2014,11,12,10,16,0.00
2014,11,12,10,17,0.20
2014,11,12,10,18,0.50
2014,11,12,10,19,0.00
2014,11,12,10,20,0.10
2014,11,12,10,21,0.50
2014,11,12,10,22,0.20
2014,11,12,10,23,0.30
2014,11,12,10,24,0.50
2014,11,12,10,25,0.60
2014,11,12,10,26,0.50
2014,11,12,10,27,2.50
2014,11,12,10,28,0.80
2014,11,12,10,29,1.50
2014,11,12,10,30,0.20
2014,11,12,10,31,0.00
2014,11,12,10,32,0.00
2014,11,12,10,33,0.00
2014,11,12,10,34,1.80
2014,11,12,10,35,0.20
2014,11,12,10,36,0.70
2014,11,12,10,37,0.60
2014,11,12,10,38,0.90
2014,11,12,10,39,0.40
2014,11,12,10,40,2.40
2014,11,12,10,41,0.00
2014,11,12,10,42,0.20
2014,11,12,10,43,1.60
2014,11,12,10,44,0.00
2014,11,12,10,45,1.00
2014,11,12,10,46,0.10
2014,11,12,10,47,0.00
2014,11,12,10,48,1.90
2014,11,12,10,49,0.20
2014,11,12,10,50,0.50
2014,11,12,10,51,0.00
2014,11,12,10,52,1.00
2014,11,12,10,53,0.20
2014,11,12,10,54,0.10
2014,11,12,10,55,0.20
2014,11,12,10,56,0.00
2014,11,12,10,57,0.40
2014,11,12,10,58,2.00
2014,11,12,10,59,0.60
2014,11,12,11,00,0.00
2014,11,12,11,01,0.00
2014,11,12,11,02,0.00
2014,11,12,11,03,0.10
2014,11,12,11,04,0.10
2014,11,12,11,05,0.10
2014,11,12,11,06,0.20
2014,11,12,11,07,0.20
2014,11,12,11,08,1.10
2014,11,12,11,09,0.10
2014,11,12,11,10,0.00
2014,11,12,11,11,0.00
2014,11,12,11,12,0.00
2014,11,12,11,13,0.00
2014,11,12,11,14,0.00
2014,11,12,11,15,0.00
2014,11,12,11,16,0.20
2014,11,12,11,17,0.00
2014,11,12,11,18,0.00
2014,11,12,11,19,1.30
2014,11,12,11,20,0.00
2014,11,12,11,21,0.00
2014,11,12,11,22,0.00
2014,11,12,11,23,0.00
2014,11,12,11,24,0.00
2014,11,12,11,25,2.00
2014,11,12,11,26,0.20
2014,11,12,11,27,0.60
2014,11,12,11,28,0.10
2014,11,12,11,29,0.30
2014,11,12,11,30,0.20
2014,11,12,11,31,0.00
2014,11,12,11,32,0.00
2014,11,12,11,33,0.00
2014,11,12,11,34,0.10
2014,11,12,11,35,0.00
2014,11,12,11,36,0.00
2014,11,12,11,37,0.00
2014,11,12,11,38,2.30
2014,11,12,11,39,0.20
2014,11,12,11,40,0.00
2014,11,12,11,41,0.60
2014,11,12,11,42,1.70
2014,11,12,11,43,0.30
2014,11,12,11,44,0.10
2014,11,12,11,45,0.10
2014,11,12,11,46,0.70
2014,11,12,11,47,0.00
2014,11,12,11,48,0.00
2014,11,12,11,49,0.00
2014,11,12,11,50,0.00
2014,11,12,11,51,0.10
2014,11,12,11,52,0.00
2014,11,12,11,53,0.00
2014,11,12,11,54,0.60
2014,11,12,11,55,0.40
2014,11,12,11,56,1.30
2014,11,12,11,57,0.20
2014,11,12,11,58,0.30
2014,11,12,11,59,0.10
2014,11,12,12,00,0.70
2014,11,12,12,01,0.80
2014,11,12,12,02,0.50
2014,11,12,12,03,0.30
2014,11,12,12,04,0.00
2014,11,12,12,05,0.10
2014,11,12,12,06,0.00
2014,11,12,12,07,0.20
2014,11,12,12,08,0.20
2014,11,12,12,09,1.70
2014,11,12,12,10,1.10
2014,11,12,12,11,1.30
2014,11,12,12,12,0.20
2014,11,12,12,13,0.20
2014,11,12,12,14,0.00
2014,11,12,12,15,0.20
2014,11,12,12,16,0.30
2014,11,12,12,17,1.20
2014,11,12,12,18,0.90
2014,11,12,12,19,0.00
2014,11,12,12,20,0.00
2014,11,12,12,21,0.00
2014,11,12,12,22,2.20
2014,11,12,12,23,1.00
2014,11,12,12,24,0.30
2014,11,12,12,25,0.90
2014,11,12,12,26,0.80
2014,11,12,12,27,0.00
2014,11,12,12,28,0.50
2014,11,12,12,29,0.40
2014,11,12,12,30,2.50
2014,11,12,12,31,0.00
2014,11,12,12,32,0.00
2014,11,12,12,33,0.00
2014,11,12,12,34,0.00
2014,11,12,12,35,0.60
2014,11,12,12,36,0.30
2014,11,12,12,37,0.00
2014,11,12,12,38,0.10
2014,11,12,12,39,0.60
2014,11,12,12,40,0.00
2014,11,12,12,41,0.00
2014,11,12,12,42,0.10
2014,11,12,12,43,0.00
2014,11,12,12,44,0.40
2014,11,12,12,45,0.00
2014,11,12,12,46,0.10
2014,11,12,12,47,0.40
2014,11,12,12,48,0.60
2014,11,12,12,49,0.00
2014,11,12,12,50,0.30
2014,11,12,12,51,0.20
2014,11,12,12,52,0.70
2014,11,12,12,53,0.00
2014,11,12,12,54,0.20
2014,11,12,12,55,0.30
2014,11,12,12,56,0.50
2014,11,12,12,57,1.10
2014,11,12,12,58,1.50
2014,11,12,12,59,0.10
2014,11,12,13,00,0.80
2014,11,12,13,01,0.30
2014,11,12,13,02,0.20
2014,11,12,13,03,0.20
2014,11,12,13,04,0.10
2014,11,12,13,05,0.30
2014,11,12,13,06,0.00
2014,11,12,13,07,0.10
2014,11,12,13,08,1.10
2014,11,12,13,09,0.10
2014,11,12,13,10,0.30
2014,11,12,13,11,0.70
2014,11,12,13,12,0.80
2014,11,12,13,13,0.10
2014,11,12,13,14,0.10
2014,11,12,13,15,0.00
2014,11,12,13,16,0.30
2014,11,12,13,17,1.20
2014,11,12,13,18,3.10
2014,11,12,13,19,0.50
2014,11,12,13,20,0.20
2014,11,12,13,21,3.50
2014,11,12,13,22,1.50
2014,11,12,13,23,0.40
2014,11,12,13,24,2.70
2014,11,12,13,25,2.40
2014,11,12,13,26,3.70
2014,11,12,13,27,3.00
2014,11,12,13,28,0.60
2014,11,12,13,29,0.00
2014,11,12,13,30,0.20
2014,11,12,13,31,0.00
2014,11,12,13,32,0.30
2014,11,12,13,33,1.10
2014,11,12,13,34,0.00
2014,11,12,13,35,0.10
2014,11,12,13,36,0.00
2014,11,12,13,37,0.10
2014,11,12,13,38,3.40
2014,11,12,13,39,1.70
2014,11,12,13,40,1.50
2014,11,12,13,41,0.80
2014,11,12,13,42,0.10
2014,11,12,13,43,0.00
2014,11,12,13,44,0.40
2014,11,12,13,45,5.40
2014,11,12,13,46,0.20
2014,11,12,13,47,0.30
2014,11,12,13,48,0.00
2014,11,12,13,49,0.20
2014,11,12,13,50,0.10
2014,11,12,13,51,1.70
2014,11,12,13,52,1.20
2014,11,12,13,53,0.60
2014,11,12,13,54,0.10
2014,11,12,13,55,0.00
2014,11,12,13,56,0.10
2014,11,12,13,57,0.10
2014,11,12,13,58,0.00
2014,11,12,13,59,0.60
2014,11,12,14,00,1.10
2014,11,12,14,01,0.00
2014,11,12,14,02,0.00
2014,11,12,14,03,0.10
2014,11,12,14,04,0.00
2014,11,12,14,05,0.70
2014,11,12,14,06,0.20
2014,11,12,14,07,0.20
2014,11,12,14,08,0.70
2014,11,12,14,09,1.00
2014,11,12,14,10,0.00
2014,11,12,14,11,1.00
2014,11,12,14,12,0.10
2014,11,12,14,13,2.20
2014,11,12,14,14,0.80
2014,11,12,14,15,1.10
2014,11,12,14,16,0.00
2014,11,12,14,17,0.10
2014,11,12,14,18,1.10
2014,11,12,14,19,0.60
2014,11,12,14,20,0.00
2014,11,12,14,21,0.70
2014,11,12,14,22,3.10
2014,11,12,14,23,0.10
2014,11,12,14,24,0.10
2014,11,12,14,25,0.00
2014,11,12,14,26,0.80
2014,11,12,14,27,0.50
2014,11,12,14,28,0.40
2014,11,12,14,29,0.00
2014,11,12,14,30,0.00
2014,11,12,14,31,0.00
2014,11,12,14,32,0.10
2014,11,12,14,33,0.10
2014,11,12,14,34,0.10
2014,11,12,14,35,0.20
2014,11,12,14,36,0.20
2014,11,12,14,37,1.60
2014,11,12,14,38,0.70
2014,11,12,14,39,0.10
2014,11,12,14,40,0.40
2014,11,12,14,41,0.20
2014,11,12,14,42,0.00
2014,11,12,14,43,0.00
2014,11,12,14,44,0.00
2014,11,12,14,45,0.00
2014,11,12,14,46,1.30
2014,11,12,14,47,0.20
2014,11,12,14,48,0.60
2014,11,12,14,49,0.40
2014,11,12,14,50,0.30
2014,11,12,14,51,0.60
2014,11,12,14,52,0.00
2014,11,12,14,53,0.00
2014,11,12,14,54,0.10
2014,11,12,14,55,0.70
2014,11,12,14,56,2.20
2014,11,12,14,57,0.50
2014,11,12,14,58,0.30
2014,11,12,14,59,0.10
2014,11,12,15,00,0.00
2014,11,12,15,01,1.80
2014,11,12,15,02,0.50
2014,11,12,15,03,0.10
2014,11,12,15,04,0.20
2014,11,12,15,05,0.10
2014,11,12,15,06,0.10
2014,11,12,15,07,1.30
2014,11,12,15,08,1.60
2014,11,12,15,09,1.60
2014,11,12,15,10,1.60
2014,11,12,15,11,1.60
2014,11,12,15,12,0.00
2014,11,12,15,13,0.00
2014,11,12,15,14,0.00
2014,11,12,15,15,0.30
2014,11,12,15,16,2.40
2014,11,12,15,17,0.30
2014,11,12,15,18,0.20
2014,11,12,15,19,0.00
2014,11,12,15,20,0.00
2014,11,12,15,21,0.00
2014,11,12,15,22,0.00
2014,11,12,15,23,0.00
2014,11,12,15,24,1.30
2014,11,12,15,25,0.00
2014,11,12,15,26,0.00
2014,11,12,15,27,1.70
2014,11,12,15,28,1.00
2014,11,12,15,29,0.20
2014,11,12,15,30,0.00
2014,11,12,15,31,0.00
2014,11,12,15,32,0.20
2014,11,12,15,33,0.00
2014,11,12,15,34,0.00
2014,11,12,15,35,0.20
2014,11,12,15,36,0.20
2014,11,12,15,37,0.10
2014,11,12,15,38,0.40
2014,11,12,15,39,0.00
2014,11,12,15,40,0.20
2014,11,12,15,41,1.20
2014,11,12,15,42,0.00
2014,11,12,15,43,0.30
2014,11,12,15,44,0.00
2014,11,12,15,45,0.00
2014,11,12,15,46,0.00
2014,11,12,15,47,0.20
2014,11,12,15,48,0.00
2014,11,12,15,49,0.50
2014,11,12,15,50,0.10
2014,11,12,15,51,0.00
2014,11,12,15,52,0.00
2014,11,12,15,53,0.00
2014,11,12,15,54,0.00
2014,11,12,15,55,0.00
2014,11,12,15,56,0.00
2014,11,12,15,57,1.00
2014,11,12,15,58,0.20
2014,11,12,15,59,0.00
2014,11,12,16,00,0.00
2014,11,12,16,01,0.00
2014,11,12,16,02,0.00
2014,11,12,16,03,0.00
2014,11,12,16,04,0.00
2014,11,12,16,05,0.00
2014,11,12,16,06,0.00
2014,11,12,16,07,0.00
2014,11,12,16,08,0.00
2014,11,12,16,09,0.00
2014,11,12,16,10,0.00
2014,11,12,16,11,0.00
2014,11,12,16,12,0.00
2014,11,12,16,13,0.00
2014,11,12,16,14,0.00
2014,11,12,16,15,0.00
2014,11,12,16,16,0.00
2014,11,12,16,17,0.00
2014,11,12,16,18,0.00
2014,11,12,16,19,0.00
2014,11,12,16,20,0.00
2014,11,12,16,21,0.00
2014,11,12,16,22,0.00
2014,11,12,16,23,0.00
2014,11,12,16,24,0.00
2014,11,12,16,25,0.00
2014,11,12,16,26,0.00
2014,11,12,16,27,0.00
2014,11,12,16,28,0.00
2014,11,12,16,29,0.00
2014,11,12,16,30,0.30
2014,11,12,16,31,0.00
2014,11,12,16,32,0.00
2014,11,12,16,33,0.00
2014,11,12,16,34,0.00
2014,11,12,16,35,0.00
2014,11,12,16,36,0.00
2014,11,12,16,37,0.00
2014,11,12,16,38,0.00
2014,11,12,16,39,0.00
2014,11,12,16,40,0.00
2014,11,12,16,41,0.00
2014,11,12,16,42,0.10
2014,11,12,16,43,0.00
2014,11,12,16,44,0.00
2014,11,12,16,45,0.00
2014,11,12,16,46,0.00
2014,11,12,16,47,0.00
2014,11,12,16,48,0.00
2014,11,12,16,49,0.00
2014,11,12,16,50,0.00
2014,11,12,16,51,0.00
2014,11,12,16,52,0.00
2014,11,12,16,53,0.00
2014,11,12,16,54,0.00
2014,11,12,16,55,0.10
2014,11,12,16,56,0.00
2014,11,12,16,57,0.00
2014,11,12,16,58,0.00
2014,11,12,16,59,0.00
2014,11,12,17,00,0.00
2014,11,12,17,01,0.00
2014,11,12,17,02,0.00
2014,11,12,17,03,0.00
2014,11,12,17,04,0.00
2014,11,12,17,05,0.00
2014,11,12,17,06,0.00
2014,11,12,17,07,0.00
2014,11,12,17,08,0.00
2014,11,12,17,09,0.00
2014,11,12,17,10,0.00
2014,11,12,17,11,0.00
2014,11,12,17,12,0.10
2014,11,12,17,13,0.00
2014,11,12,17,14,0.00
2014,11,12,17,15,0.00
2014,11,12,17,16,0.00
2014,11,12,17,17,0.00
2014,11,12,17,18,0.00
2014,11,12,17,19,0.20
2014,11,12,17,20,0.00
2014,11,12,17,21,0.00
2014,11,12,17,22,0.00
2014,11,12,17,23,0.00
2014,11,12,17,24,0.00
2014,11,12,17,25,0.00
2014,11,12,17,26,0.00
2014,11,12,17,27,0.00
2014,11,12,17,28,0.00
2014,11,12,17,29,0.00
2014,11,12,17,30,0.00
2014,11,12,17,31,0.00
2014,11,12,17,32,0.00
2014,11,12,17,33,0.00
2014,11,12,17,34,0.00
2014,11,12,17,35,0.00
2014,11,12,17,36,0.00
2014,11,12,17,37,0.00
2014,11,12,17,38,0.00
2014,11,12,17,39,0.00
2014,11,12,17,40,0.00
2014,11,12,17,41,0.00
2014,11,12,17,42,0.00
2014,11,12,17,43,0.30
2014,11,12,17,44,0.00
2014,11,12,17,45,0.00
2014,11,12,17,46,0.00
2014,11,12,17,47,0.00
2014,11,12,17,48,0.00
2014,11,12,17,49,0.00
2014,11,12,17,50,0.00
2014,11,12,17,51,0.10
2014,11,12,17,52,0.00
2014,11,12,17,53,0.00
2014,11,12,17,54,0.00
2014,11,12,17,55,0.20
2014,11,12,17,56,0.20
2014,11,12,17,57,0.00